RYR39UJ LATI-EPPO

Flight info

Callsign RYR39UJ
Flight time 1h 58m
Altitude 39000
Route RINAV2W RINAV DCT ALELU DCT MODRA DCT VAL DCT PARAK DCT AMRAX DCT TEKLA DCT BILNA DCT REGLI DCT ADVEX Z159 NILPU NILPU3M
Aircraft B38M/M-SDE1FGHILORVWXY/HB1

Departure

Time 2026-05-04 07:09
Airport Tirana International Airport Mother Teresa (LATI)

Arrival

Time 2026-05-04 09:07
Airport Poznań-Ławica Airport (EPPO)
Time Latitude Longitude Altitude Speed Heading
2026-05-04 06:51 41.41949 19.71519 123 ft 0 kts 264°
2026-05-04 07:01 41.41950 19.71529 121 ft 4 kts 264°
2026-05-04 07:02 41.41951 19.71559 125 ft 4 kts 284°
2026-05-04 07:02 41.41937 19.71580 122 ft 4 kts 345°
2026-05-04 07:02 41.41919 19.71585 124 ft 1 kts 354°
2026-05-04 07:02 41.41916 19.71585 126 ft 0 kts 354°
2026-05-04 07:05 41.41924 19.71584 126 ft 3 kts 354°
2026-05-04 07:05 41.41965 19.71578 122 ft 9 kts 354°
2026-05-04 07:05 41.42051 19.71567 121 ft 16 kts 354°
2026-05-04 07:06 41.42323 19.71530 122 ft 23 kts 354°
2026-05-04 07:06 41.42490 19.71508 119 ft 25 kts 354°
2026-05-04 07:06 41.42642 19.71495 118 ft 15 kts 20°
2026-05-04 07:07 41.42668 19.71600 121 ft 14 kts 84°
2026-05-04 07:08 41.40814 19.72150 171 ft 160 kts 173°
2026-05-04 07:09 41.39685 19.72315 661 ft 163 kts 174°
2026-05-04 07:09 41.38578 19.72483 1174 ft 161 kts 173°
2026-05-04 07:09 41.37061 19.72705 1738 ft 167 kts 174°
2026-05-04 07:09 41.35871 19.72845 2208 ft 180 kts 175°
2026-05-04 07:10 41.34983 19.72952 2405 ft 199 kts 175°
2026-05-04 07:10 41.33528 19.73133 2777 ft 222 kts 175°
2026-05-04 07:12 41.22665 19.69345 7507 ft 274 kts 266°
2026-05-04 07:12 41.22915 19.66873 8192 ft 276 kts 294°
2026-05-04 07:12 41.24015 19.64814 8952 ft 278 kts 321°
2026-05-04 07:12 41.25722 19.63664 9707 ft 277 kts 348°
2026-05-04 07:13 41.27650 19.63678 10370 ft 283 kts 10°
2026-05-04 07:13 41.29665 19.64009 10739 ft 300 kts
2026-05-04 07:13 41.31783 19.64228 11313 ft 308 kts
2026-05-04 07:14 41.40277 19.65350 14603 ft 310 kts
2026-05-04 07:14 41.42431 19.65656 15386 ft 312 kts
2026-05-04 07:15 41.44597 19.65969 16134 ft 315 kts
2026-05-04 07:15 41.46786 19.66286 16855 ft 317 kts
2026-05-04 07:15 41.48990 19.66607 17536 ft 320 kts
2026-05-04 07:15 41.51216 19.66930 18203 ft 322 kts
2026-05-04 07:16 41.53454 19.67258 18847 ft 325 kts
2026-05-04 07:16 41.55707 19.67589 19471 ft 327 kts
2026-05-04 07:16 41.57978 19.67925 20065 ft 330 kts
2026-05-04 07:16 41.60267 19.68262 20643 ft 332 kts
2026-05-04 07:17 41.62571 19.68604 21213 ft 335 kts
2026-05-04 07:17 41.64891 19.68989 21759 ft 337 kts 11°
2026-05-04 07:17 41.67178 19.69696 22311 ft 339 kts 12°
2026-05-04 07:17 41.69490 19.70397 22835 ft 342 kts 12°
2026-05-04 07:18 41.71815 19.71087 23357 ft 343 kts 12°
2026-05-04 07:18 41.74154 19.71773 23869 ft 346 kts 11°
2026-05-04 07:18 41.76513 19.72460 24368 ft 348 kts 11°
2026-05-04 07:18 41.78888 19.73152 24862 ft 351 kts 11°
2026-05-04 07:19 41.81282 19.73847 25353 ft 354 kts 11°
2026-05-04 07:19 41.83699 19.74551 25800 ft 357 kts 11°
2026-05-04 07:19 41.86106 19.75251 26213 ft 360 kts 11°
2026-05-04 07:19 41.88564 19.75967 26658 ft 363 kts 11°
2026-05-04 07:20 41.91039 19.76689 27069 ft 366 kts 11°
2026-05-04 07:20 41.93536 19.77418 27489 ft 368 kts 11°
2026-05-04 07:20 41.96045 19.78150 27872 ft 371 kts 11°
2026-05-04 07:20 41.98579 19.78827 28237 ft 372 kts
2026-05-04 07:22 42.17037 19.81048 30679 ft 389 kts
2026-05-04 07:22 42.19737 19.81398 31028 ft 391 kts
2026-05-04 07:23 42.22454 19.81750 31315 ft 394 kts
2026-05-04 07:23 42.25185 19.82105 31624 ft 396 kts
2026-05-04 07:23 42.27933 19.82461 31909 ft 398 kts
2026-05-04 07:23 42.30695 19.82821 32189 ft 400 kts
2026-05-04 07:24 42.33475 19.83183 32463 ft 402 kts
2026-05-04 07:24 42.36265 19.83546 32812 ft 403 kts
2026-05-04 07:24 42.39057 19.83911 33176 ft 403 kts
2026-05-04 07:24 42.41846 19.84274 33565 ft 402 kts
2026-05-04 07:25 42.44627 19.84638 33906 ft 402 kts
2026-05-04 07:26 42.63279 19.77478 35976 ft 404 kts 341°
2026-05-04 07:27 42.65920 19.76174 36258 ft 404 kts 341°
2026-05-04 07:27 42.68561 19.74866 36508 ft 405 kts 341°
2026-05-04 07:27 42.71211 19.73553 36728 ft 405 kts 341°
2026-05-04 07:27 42.73850 19.72243 37060 ft 403 kts 341°
2026-05-04 07:28 42.76478 19.70939 37382 ft 401 kts 341°
2026-05-04 07:28 42.79061 19.69656 37644 ft 400 kts 341°
2026-05-04 07:28 42.81672 19.68357 37856 ft 400 kts 341°
2026-05-04 07:28 42.84288 19.67055 38060 ft 400 kts 341°
2026-05-04 07:29 42.86905 19.65751 38255 ft 400 kts 341°
2026-05-04 07:29 42.89525 19.64445 38394 ft 402 kts 341°
2026-05-04 07:29 42.92155 19.63132 38561 ft 402 kts 341°
2026-05-04 07:29 42.94781 19.61820 38748 ft 403 kts 341°
2026-05-04 07:30 42.97413 19.60504 38895 ft 403 kts 341°
2026-05-04 07:30 43.00117 19.59556 39043 ft 402 kts 355°
2026-05-04 07:30 43.02905 19.59660 39198 ft 402 kts
2026-05-04 07:30 43.05692 19.60102 39175 ft 405 kts
2026-05-04 07:31 43.11292 19.61163 39192 ft 406 kts
2026-05-04 07:33 43.33618 19.65918 39214 ft 406 kts
2026-05-04 07:33 43.39203 19.67123 39205 ft 406 kts
2026-05-04 07:34 43.44789 19.68331 39191 ft 406 kts
2026-05-04 07:34 43.50375 19.69541 39189 ft 406 kts
2026-05-04 07:35 43.55956 19.70751 39192 ft 406 kts
2026-05-04 07:35 43.61534 19.71964 39190 ft 406 kts
2026-05-04 07:36 43.67079 19.73171 39187 ft 406 kts
2026-05-04 07:38 43.89430 19.78061 39194 ft 406 kts
2026-05-04 07:38 43.95010 19.79288 39194 ft 406 kts
2026-05-04 07:39 44.00550 19.80508 39191 ft 406 kts
2026-05-04 07:39 44.06126 19.81739 39185 ft 406 kts
2026-05-04 07:40 44.11711 19.82973 39194 ft 406 kts
2026-05-04 07:40 44.17289 19.84209 39197 ft 406 kts
2026-05-04 07:41 44.22871 19.85448 39180 ft 406 kts
2026-05-04 07:41 44.28444 19.86687 39175 ft 406 kts
2026-05-04 07:42 44.34053 19.87621 39204 ft 406 kts
2026-05-04 07:42 44.39692 19.88230 39182 ft 406 kts
2026-05-04 07:43 44.45333 19.88876 39191 ft 407 kts
2026-05-04 07:43 44.50967 19.89530 39181 ft 406 kts
2026-05-04 07:44 44.56607 19.90188 39196 ft 407 kts
2026-05-04 07:44 44.62257 19.90850 39180 ft 407 kts
2026-05-04 07:45 44.67904 19.91512 39180 ft 407 kts
2026-05-04 07:45 44.73557 19.92177 39184 ft 408 kts
2026-05-04 07:46 44.79215 19.92843 39183 ft 408 kts
2026-05-04 07:46 44.84871 19.93512 39181 ft 409 kts
2026-05-04 07:47 44.90500 19.94178 39191 ft 409 kts
2026-05-04 07:49 45.13234 19.96880 39180 ft 409 kts
2026-05-04 07:49 45.18912 19.97558 39182 ft 410 kts
2026-05-04 07:50 45.24563 19.98235 39183 ft 410 kts
2026-05-04 07:50 45.30285 19.98921 39175 ft 410 kts
2026-05-04 07:51 45.35933 19.99600 39175 ft 410 kts
2026-05-04 07:51 45.41619 20.00284 39174 ft 410 kts
2026-05-04 07:52 45.47309 20.00971 39173 ft 411 kts
2026-05-04 07:52 45.53011 20.01660 39177 ft 411 kts
2026-05-04 07:54 45.75818 20.04432 39174 ft 411 kts
2026-05-04 07:55 45.81516 20.05128 39173 ft 411 kts
2026-05-04 07:55 45.87214 20.05825 39175 ft 411 kts
2026-05-04 07:56 45.92915 20.06525 39175 ft 411 kts
2026-05-04 07:56 45.98612 20.07225 39174 ft 411 kts
2026-05-04 07:57 46.03347 20.07808 39175 ft 411 kts
2026-05-04 07:57 46.09046 20.08510 39175 ft 411 kts
2026-05-04 07:58 46.14745 20.09191 39171 ft 411 kts
2026-05-04 07:58 46.17579 20.08766 39174 ft 410 kts 347°
2026-05-04 07:58 46.20363 20.07826 39168 ft 412 kts 348°
2026-05-04 07:59 46.25946 20.05905 39191 ft 413 kts 347°
2026-05-04 07:59 46.31523 20.03891 39179 ft 413 kts 347°
2026-05-04 08:00 46.37103 20.01849 39183 ft 414 kts 347°
2026-05-04 08:02 46.59447 19.93619 39177 ft 415 kts 347°
2026-05-04 08:02 46.65042 19.91547 39180 ft 415 kts 347°
2026-05-04 08:03 46.70637 19.89472 39180 ft 415 kts 347°
2026-05-04 08:03 46.76236 19.87389 39189 ft 416 kts 347°
2026-05-04 08:04 46.81842 19.85300 39182 ft 415 kts 347°
2026-05-04 08:04 46.87411 19.83220 39183 ft 416 kts 346°
2026-05-04 08:05 46.93021 19.81121 39182 ft 416 kts 346°
2026-05-04 08:05 46.98633 19.79016 39182 ft 416 kts 346°
2026-05-04 08:06 47.04243 19.76907 39195 ft 417 kts 346°
2026-05-04 08:06 47.09865 19.74789 39183 ft 417 kts 346°
2026-05-04 08:08 47.32381 19.66261 39165 ft 418 kts 346°
2026-05-04 08:11 47.57759 19.56557 39156 ft 419 kts 346°
2026-05-04 08:11 47.66238 19.53294 39156 ft 419 kts 346°
2026-05-04 08:12 47.71884 19.51114 39157 ft 420 kts 346°
2026-05-04 08:12 47.77537 19.48928 39155 ft 419 kts 346°
2026-05-04 08:13 47.83180 19.46740 39155 ft 420 kts 346°
2026-05-04 08:13 47.88832 19.44543 39156 ft 419 kts 346°
2026-05-04 08:14 47.94480 19.42344 39157 ft 420 kts 346°
2026-05-04 08:16 48.16646 19.31448 39143 ft 422 kts 336°
2026-05-04 08:16 48.21989 19.27775 39144 ft 422 kts 336°
2026-05-04 08:17 48.27323 19.24094 39139 ft 422 kts 336°
2026-05-04 08:17 48.32657 19.20403 39125 ft 423 kts 336°
2026-05-04 08:19 48.53969 19.05573 39121 ft 423 kts 335°
2026-05-04 08:20 48.59310 19.01833 39120 ft 423 kts 335°
2026-05-04 08:20 48.64649 18.98088 39118 ft 423 kts 335°
2026-05-04 08:21 48.69982 18.94337 39112 ft 423 kts 335°
2026-05-04 08:21 48.75313 18.90580 39112 ft 423 kts 335°
2026-05-04 08:22 48.80644 18.86813 39110 ft 423 kts 335°
2026-05-04 08:24 49.01983 18.71647 39107 ft 424 kts 335°
2026-05-04 08:24 49.07320 18.67831 39103 ft 423 kts 334°
2026-05-04 08:25 49.12652 18.64008 39100 ft 424 kts 334°
2026-05-04 08:25 49.17985 18.60177 39103 ft 424 kts 334°
2026-05-04 08:27 49.39285 18.44804 39094 ft 424 kts 335°
2026-05-04 08:28 49.44647 18.41061 39086 ft 423 kts 335°
2026-05-04 08:28 49.50001 18.37301 39077 ft 423 kts 334°
2026-05-04 08:29 49.55360 18.33528 39061 ft 423 kts 334°
2026-05-04 08:31 49.76774 18.18357 39044 ft 423 kts 334°
2026-05-04 08:33 49.98157 18.03061 39046 ft 423 kts 334°
2026-05-04 08:35 50.20729 17.92574 39043 ft 425 kts 344°
2026-05-04 08:35 50.26462 17.90301 39045 ft 425 kts 344°
2026-05-04 08:37 50.43650 17.83455 37889 ft 423 kts 344°
2026-05-04 08:37 50.46496 17.82316 37340 ft 421 kts 344°
2026-05-04 08:37 50.49324 17.81183 36853 ft 418 kts 344°
2026-05-04 08:38 50.52128 17.80059 36371 ft 414 kts 344°
2026-05-04 08:38 50.54913 17.78940 35847 ft 412 kts 344°
2026-05-04 08:38 50.57686 17.77826 35334 ft 411 kts 344°
2026-05-04 08:40 50.76667 17.70159 31974 ft 396 kts 344°
2026-05-04 08:40 50.79327 17.69079 31513 ft 394 kts 343°
2026-05-04 08:40 50.81977 17.68003 31051 ft 392 kts 343°
2026-05-04 08:41 50.84609 17.66932 30591 ft 390 kts 343°
2026-05-04 08:41 50.87230 17.65864 30154 ft 387 kts 343°
2026-05-04 08:41 50.89826 17.64806 29727 ft 384 kts 343°
2026-05-04 08:41 50.92413 17.63750 29294 ft 383 kts 343°
2026-05-04 08:42 50.94982 17.62699 28864 ft 381 kts 343°
2026-05-04 08:42 50.97541 17.61653 28452 ft 378 kts 343°
2026-05-04 08:42 51.00086 17.60605 28021 ft 377 kts 343°
2026-05-04 08:42 51.02614 17.59571 27626 ft 374 kts 343°
2026-05-04 08:43 51.05134 17.58539 27212 ft 372 kts 343°
2026-05-04 08:43 51.07630 17.57514 26816 ft 370 kts 343°
2026-05-04 08:43 51.10107 17.56425 26357 ft 369 kts 341°
2026-05-04 08:43 51.12582 17.55301 25933 ft 368 kts 341°
2026-05-04 08:44 51.15035 17.54194 25573 ft 365 kts 341°
2026-05-04 08:44 51.16648 17.53467 25322 ft 364 kts 341°
2026-05-04 08:46 51.33358 17.45908 22691 ft 349 kts 341°
2026-05-04 08:46 51.35687 17.44849 22321 ft 348 kts 341°
2026-05-04 08:46 51.38010 17.43793 21952 ft 346 kts 341°
2026-05-04 08:46 51.40318 17.42745 21593 ft 344 kts 341°
2026-05-04 08:47 51.42609 17.41700 21239 ft 342 kts 341°
2026-05-04 08:47 51.44891 17.40658 20883 ft 340 kts 341°
2026-05-04 08:47 51.47156 17.39623 20525 ft 338 kts 340°
2026-05-04 08:47 51.49407 17.38593 20174 ft 336 kts 340°
2026-05-04 08:48 51.51647 17.37569 19827 ft 333 kts 340°
2026-05-04 08:48 51.53870 17.36551 19479 ft 332 kts 340°
2026-05-04 08:48 51.56083 17.35537 19138 ft 329 kts 340°
2026-05-04 08:48 51.58276 17.34529 18791 ft 327 kts 340°
2026-05-04 08:49 51.60457 17.33527 18450 ft 325 kts 340°
2026-05-04 08:50 51.73240 17.27634 16447 ft 313 kts 340°
2026-05-04 08:50 51.75327 17.26669 16115 ft 311 kts 340°
2026-05-04 08:51 51.77373 17.25722 15790 ft 309 kts 340°
2026-05-04 08:51 51.79458 17.24756 15461 ft 308 kts 340°
2026-05-04 08:51 51.81485 17.23816 15134 ft 306 kts 340°
2026-05-04 08:51 51.83528 17.22876 14802 ft 305 kts 340°
2026-05-04 08:52 51.85569 17.21945 14442 ft 305 kts 340°
2026-05-04 08:52 51.87605 17.21015 14130 ft 303 kts 340°
2026-05-04 08:52 51.89619 17.20093 13818 ft 300 kts 340°
2026-05-04 08:52 51.91627 17.19175 13505 ft 299 kts 340°
2026-05-04 08:53 51.93621 17.18259 13194 ft 297 kts 340°
2026-05-04 08:54 52.08473 17.16268 10272 ft 313 kts 353°
2026-05-04 08:55 52.10658 17.16064 9838 ft 315 kts 353°
2026-05-04 08:55 52.12853 17.15858 9389 ft 317 kts 353°
2026-05-04 08:55 52.15061 17.15673 8954 ft 318 kts 357°
2026-05-04 08:55 52.17205 17.16372 8569 ft 312 kts 17°
2026-05-04 08:57 52.23558 17.31008 6800 ft 256 kts 73°
2026-05-04 09:01 52.36062 17.13784 3892 ft 181 kts 284°
2026-05-04 09:01 52.36448 17.11847 3667 ft 176 kts 283°
2026-05-04 09:01 52.36811 17.09981 3468 ft 170 kts 283°
2026-05-04 09:01 52.37153 17.08212 3264 ft 156 kts 282°
2026-05-04 09:02 52.37469 17.06550 3096 ft 151 kts 282°
2026-05-04 09:02 52.37783 17.04908 2883 ft 150 kts 283°
2026-05-04 09:02 52.38103 17.03286 2724 ft 147 kts 283°
2026-05-04 09:02 52.38395 17.01725 2538 ft 141 kts 283°
2026-05-04 09:03 52.38683 17.00207 2318 ft 139 kts 283°
2026-05-04 09:03 52.38973 16.98690 2134 ft 140 kts 285°
2026-05-04 09:03 52.39272 16.97187 1885 ft 139 kts 284°
2026-05-04 09:03 52.39572 16.95662 1747 ft 143 kts 284°
2026-05-04 09:04 52.39877 16.94122 1536 ft 142 kts 285°
2026-05-04 09:04 52.40178 16.92577 1410 ft 144 kts 285°
2026-05-04 09:04 52.40479 16.91011 1190 ft 145 kts 285°
2026-05-04 09:04 52.40791 16.89435 1018 ft 146 kts 286°
2026-05-04 09:05 52.41109 16.87852 848 ft 145 kts 285°
2026-05-04 09:05 52.41425 16.86264 645 ft 148 kts 286°
2026-05-04 09:05 52.41720 16.84634 403 ft 151 kts 286°
2026-05-04 09:05 52.42025 16.83040 291 ft 138 kts 286°
2026-05-04 09:06 52.42248 16.81859 294 ft 74 kts 287°
2026-05-04 09:07 52.42055 16.81990 292 ft 20 kts 108°
2026-05-04 09:08 52.42010 16.82223 294 ft 23 kts 107°
2026-05-04 09:08 52.41959 16.82491 293 ft 26 kts 107°
2026-05-04 09:08 52.41903 16.82783 292 ft 20 kts 107°
2026-05-04 09:08 52.41829 16.82907 292 ft 16 kts 191°
2026-05-04 09:09 52.41715 16.82849 292 ft 18 kts 192°
2026-05-04 09:09 52.41651 16.82949 295 ft 14 kts 99°
2026-05-04 09:09 52.41629 16.83110 292 ft 7 kts 104°
2026-05-04 09:09 52.41617 16.83138 292 ft 4 kts 150°
2026-05-04 09:10 52.41578 16.83132 295 ft 4 kts 193°
2026-05-04 09:10 52.41561 16.83125 291 ft 0 kts 193°
2026-05-04 09:10 52.41560 16.83124 291 ft 0 kts 193°
2026-05-04 09:15 52.41555 16.83123 291 ft 0 kts 193°